When you browse on this site, cookies collect data to enhance your experience and personalize the content and advertising you see.
Visit our Privacy Policy to learn more. By continuing to use the site, you agree to this use of cookies and data.
  • In Austria
  • List of Countries
  • For 7 days
  • Water Temperature
  • Satellite Maps
  • Weather Map
  • News
  • Weather Widgets
  • user-avatar
    Login

    Hourly Weather Kerns

    Today, 17 July, Wednesday

    Time Temperature Precipitation Wind Pressure Humidity
    00:00 +12°C° 0 mm 3 mps 762 mmHg 82%
    01:00 +12°C° 0 mm 3 mps 762 mmHg 80%
    02:00 +12°C° 0 mm 3 mps 762 mmHg 81%
    03:00 +12°C° 0 mm 3 mps 762 mmHg 83%
    04:00 +12°C° 0 mm 3 mps 761 mmHg 86%
    05:00 +12°C° 0 mm 3 mps 762 mmHg 88%
    06:00 +12°C° 0 mm 3 mps 762 mmHg 89%
    07:00 +12°C° 0 mm 4 mps 762 mmHg 91%
    08:00 +15°C° 0 mm 4 mps 762 mmHg 81%
    09:00 +19°C° 0 mm 4 mps 763 mmHg 71%
    10:00 +22°C° 0 mm 4 mps 763 mmHg 59%
    11:00 +23°C° 0 mm 5 mps 763 mmHg 56%
    12:00 +25°C° 0 mm 5 mps 762 mmHg 53%
    13:00 +26°C° 0 mm 5 mps 761 mmHg 50%
    14:00 +26°C° 0 mm 5 mps 761 mmHg 51%
    15:00 +25°C° 0 mm 5 mps 760 mmHg 53%
    16:00 +25°C° 0 mm 5 mps 760 mmHg 55%
    17:00 +21°C° 0 mm 5 mps 761 mmHg 65%
    18:00 +19°C° 0 mm 4 mps 761 mmHg 76%
    19:00 +17°C° 0 mm 4 mps 761 mmHg 86%
    20:00 +15°C° 0 mm 4 mps 762 mmHg 87%
    21:00 +14°C° 0 mm 4 mps 762 mmHg 88%
    22:00 +13°C° 0 mm 4 mps 763 mmHg 89%
    23:00 +13°C° 0 mm 4 mps 762 mmHg 87%

    Tomorrow, 18 July, Thursday

    Time Temperature Precipitation Wind Pressure Humidity
    00:00 +13°C° 0 mm 4 mps 762 mmHg 85%
    01:00 +13°C° 0 mm 4 mps 762 mmHg 84%
    02:00 +13°C° 0 mm 4 mps 762 mmHg 85%
    03:00 +13°C° 0 mm 3 mps 762 mmHg 87%
    04:00 +13°C° 0 mm 3 mps 762 mmHg 88%
    05:00 +13°C° 0 mm 4 mps 762 mmHg 90%
    06:00 +13°C° 0 mm 4 mps 762 mmHg 92%
    07:00 +13°C° 0 mm 4 mps 762 mmHg 94%
    08:00 +17°C° 0 mm 4 mps 762 mmHg 83%
    09:00 +20°C° 0 mm 5 mps 762 mmHg 71%
    10:00 +23°C° 0 mm 5 mps 763 mmHg 59%
    11:00 +25°C° 0 mm 5 mps 762 mmHg 56%
    12:00 +26°C° 0 mm 5 mps 761 mmHg 53%
    13:00 +26°C° 0 mm 5 mps 761 mmHg 49%
    14:00 +26°C° 0 mm 5 mps 761 mmHg 51%
    15:00 +25°C° 0 mm 5 mps 761 mmHg 53%
    16:00 +25°C° 0 mm 5 mps 760 mmHg 55%
    17:00 +21°C° 0 mm 5 mps 761 mmHg 65%
    18:00 +19°C° 0 mm 5 mps 761 mmHg 75%
    19:00 +17°C° 0 mm 4 mps 761 mmHg 84%
    20:00 +15°C° 0 mm 4 mps 762 mmHg 85%
    21:00 +14°C° 0 mm 4 mps 762 mmHg 86%
    22:00 +13°C° 0 mm 3 mps 763 mmHg 87%
    23:00 +13°C° 0 mm 3 mps 762 mmHg 86%

    Day after tomorrow, 19 July, Friday

    Time Temperature Precipitation Wind Pressure Humidity
    00:00 +13°C° 0 mm 3 mps 762 mmHg 86%
    01:00 +13°C° 0 mm 3 mps 762 mmHg 85%
    02:00 +13°C° 0 mm 3 mps 762 mmHg 86%
    03:00 +13°C° 0 mm 3 mps 762 mmHg 87%
    04:00 +13°C° 0 mm 3 mps 762 mmHg 89%
    05:00 +13°C° 0 mm 3 mps 762 mmHg 90%
    06:00 +12°C° 0 mm 4 mps 762 mmHg 92%
    07:00 +12°C° 0 mm 4 mps 762 mmHg 93%
    08:00 +15°C° 0 mm 4 mps 763 mmHg 81%
    09:00 +19°C° 0 mm 4 mps 763 mmHg 68%
    10:00 +22°C° 0 mm 5 mps 763 mmHg 56%
    11:00 +23°C° 0 mm 5 mps 763 mmHg 54%
    12:00 +25°C° 0 mm 5 mps 762 mmHg 52%
    13:00 +26°C° 0 mm 5 mps 762 mmHg 50%
    14:00 +25°C° 0 mm 5 mps 761 mmHg 51%
    15:00 +25°C° 0 mm 5 mps 761 mmHg 53%
    16:00 +23°C° 0 mm 5 mps 761 mmHg 55%
    17:00 +21°C° 0 mm 5 mps 761 mmHg 65%
    18:00 +19°C° 0 mm 4 mps 761 mmHg 75%
    19:00 +15°C° 0 mm 4 mps 762 mmHg 85%
    20:00 +15°C° 0 mm 4 mps 762 mmHg 88%
    21:00 +14°C° 0 mm 4 mps 763 mmHg 91%
    22:00 +13°C° 0 mm 3 mps 763 mmHg 93%
    23:00 +13°C° 0 mm 3 mps 763 mmHg 93%

    20 July, Saturday

    Time Temperature Precipitation Wind Pressure Humidity
    00:00 +13°C° 0 mm 3 mps 763 mmHg 93%
    01:00 +12°C° 0 mm 3 mps 762 mmHg 92%
    02:00 +12°C° 0 mm 3 mps 762 mmHg 92%
    03:00 +12°C° 0 mm 3 mps 762 mmHg 91%
    04:00 +12°C° 0 mm 3 mps 762 mmHg 91%
    05:00 +12°C° 0 mm 3 mps 762 mmHg 91%
    06:00 +12°C° 0 mm 3 mps 763 mmHg 92%
    07:00 +12°C° 0 mm 3 mps 763 mmHg 92%
    08:00 +16°C° 0 mm 3 mps 763 mmHg 80%
    09:00 +20°C° 0 mm 4 mps 763 mmHg 67%
    10:00 +23°C° 0 mm 4 mps 763 mmHg 55%
    11:00 +25°C° 0 mm 4 mps 762 mmHg 52%
    12:00 +25°C° 0 mm 4 mps 762 mmHg 50%
    13:00 +26°C° 0 mm 5 mps 761 mmHg 48%
    14:00 +26°C° 0 mm 5 mps 761 mmHg 50%
    15:00 +25°C° 0 mm 5 mps 760 mmHg 53%
    16:00 +25°C° 0 mm 4 mps 760 mmHg 56%
    17:00 +21°C° 0 mm 4 mps 760 mmHg 66%
    18:00 +19°C° 0 mm 4 mps 761 mmHg 76%
    19:00 +17°C° 0 mm 3 mps 761 mmHg 86%
    20:00 +17°C° 0 mm 3 mps 762 mmHg 87%
    21:00 +16°C° 0 mm 3 mps 762 mmHg 89%
    22:00 +16°C° 0 mm 3 mps 762 mmHg 91%
    23:00 +14°C° 0 mm 3 mps 762 mmHg 92%

    21 July, Sunday

    Time Temperature Precipitation Wind Pressure Humidity
    00:00 +14°C° 0 mm 3 mps 762 mmHg 92%
    01:00 +14°C° 0 mm 3 mps 761 mmHg 93%
    02:00 +14°C° 0 mm 3 mps 761 mmHg 93%
    03:00 +14°C° 0 mm 3 mps 761 mmHg 94%
    04:00 +15°C° 0 mm 2 mps 760 mmHg 94%
    05:00 +15°C° 0 mm 2 mps 761 mmHg 95%
    06:00 +15°C° 0 mm 2 mps 761 mmHg 95%
    07:00 +15°C° 0 mm 2 mps 761 mmHg 95%
    08:00 +18°C° 0 mm 3 mps 761 mmHg 83%
    09:00 +21°C° 0 mm 3 mps 761 mmHg 71%
    10:00 +26°C° 0 mm 3 mps 761 mmHg 58%
    11:00 +27°C° 0 mm 3 mps 761 mmHg 55%
    12:00 +27°C° 0 mm 3 mps 760 mmHg 52%
    13:00 +28°C° 0 mm 4 mps 760 mmHg 49%
    14:00 +28°C° 0 mm 4 mps 759 mmHg 51%
    15:00 +27°C° 0 mm 4 mps 759 mmHg 54%
    16:00 +27°C° 0 mm 4 mps 758 mmHg 57%
    17:00 +25°C° 0 mm 4 mps 759 mmHg 69%
    18:00 +21°C° 0 mm 4 mps 759 mmHg 81%
    19:00 +19°C° 0 mm 4 mps 760 mmHg 93%
    20:00 +19°C° 0 mm 4 mps 760 mmHg 94%
    21:00 +18°C° 0 mm 3 mps 760 mmHg 95%
    22:00 +18°C° 0 mm 3 mps 761 mmHg 96%
    23:00 +18°C° 0 mm 3 mps 760 mmHg 97%

    22 July, Monday

    Time Temperature Precipitation Wind Pressure Humidity
    00:00 +18°C° 0 mm 3 mps 760 mmHg 97%
    01:00 +17°C° 0 mm 3 mps 760 mmHg 97%
    02:00 +17°C° 0 mm 3 mps 760 mmHg 97%
    03:00 +18°C° 0 mm 3 mps 760 mmHg 97%
    04:00 +18°C° 0 mm 3 mps 759 mmHg 97%
    05:00 +18°C° 0 mm 3 mps 760 mmHg 97%
    06:00 +18°C° 0 mm 3 mps 760 mmHg 97%
    07:00 +18°C° 0 mm 3 mps 761 mmHg 97%
    08:00 +20°C° 0 mm 3 mps 761 mmHg 84%
    09:00 +24°C° 0 mm 3 mps 761 mmHg 71%
    10:00 +27°C° 0 mm 3 mps 761 mmHg 58%
    11:00 +28°C° 0 mm 4 mps 760 mmHg 54%
    12:00 +29°C° 0 mm 4 mps 760 mmHg 50%
    13:00 +30°C° 0 mm 4 mps 759 mmHg 46%
    14:00 +30°C° 0 mm 5 mps 759 mmHg 50%
    15:00 +29°C° 0 mm 5 mps 759 mmHg 55%
    16:00 +28°C° 0 mm 5 mps 758 mmHg 59%
    17:00 +26°C° 0 mm 5 mps 759 mmHg 71%
    18:00 +23°C° 0 mm 4 mps 759 mmHg 83%
    19:00 +21°C° 0 mm 4 mps 760 mmHg 94%
    20:00 +20°C° 0 mm 4 mps 760 mmHg 95%
    21:00 +20°C° 0 mm 3 mps 761 mmHg 96%
    22:00 +19°C° 0 mm 3 mps 761 mmHg 97%
    23:00 +19°C° 0 mm 3 mps 761 mmHg 97%
    Show more